Flag for Germany Weather past 2 weeks in Eckernförde, Schleswig-Holstein, Germany

Now
56 °F

Scattered clouds.


Feels Like: 56 °F
Forecast: 40 / 62 °F
Wind: 5 mph from Northwest

Location: Schleswig

Current Time: May 23, 2015 at 12:31:14 PM

Latest Report: May 23, 2015 at 12:00 PM


Visibility: 19 mi

Pressure: 30.18 "Hg

Humidity: 64%

Dew point: 44 °F

Location of EckernfördeLocation

Historic Weather in Eckernförde — Graph

°F

Eckernförde temperature yesterday

Maximum temperature yesterday: 65 °F (at 2:00 PM)
Minimum temperature yesterday: 45 °F (at 4:00 AM)
Average temperature yesterday: 55 °F

Past Weeks' High & Low Weather Summary

 TemperatureHumidityPressure
High72 °F (May 11, 6:00 PM)98% (May 10, 5:00 AM)30.33 "Hg (May 10, 5:00 AM)
Low42 °F (May 16, 12:00 AM)45% (May 11, 4:00 PM)29.50 "Hg (May 19, 1:00 AM)
Average51 °F79%30.00 "Hg
* Reported May 8 10:00 AM — May 23 10:00 AM, Eckernförde, Weather by CustomWeather, © 2015

Note: Actual official high and low records may vary slightly from our data, if they occured in-between our weather recording intervals... More about our weather records

Advertising

Eckernförde weather history for previous 24 hours

 ConditionsComfort  
Time TempWeatherWind HumidityBarometerVisibility
10:00 AM
Sat, May 23
52 °FScattered clouds.5 mph69%30.17 "Hg19 mi
9:00 AM49 °FPartly sunny.5 mph81%30.17 "Hg17 mi
8:00 AM47 °FOvercast.5 mph92%30.16 "Hg16 mi
7:00 AM48 °FLight rain. Low clouds.3 mph97%30.14 "Hg9 mi
6:00 AM48 °FLight rain. Overcast.3 mph97%30.13 "Hg9 mi
5:00 AM50 °FLight rain. Low clouds.5 mph97%30.13 "Hg3 mi
4:00 AM52 °FLight rain. Low clouds.3 mph97%30.12 "Hg2 mi
3:00 AM52 °FFog.3 mph94%30.13 "Hg4 mi
2:00 AM53 °FOvercast.3 mph89%30.13 "Hg6 mi
1:00 AM52 °FOvercast.5 mph86%30.14 "Hg8 mi
12:00 AM53 °FOvercast.3 mph88%30.14 "Hg8 mi
11:00 PM
Fri, May 22
53 °FOvercast.3 mph83%30.15 "Hg12 mi
10:00 PM53 °FOvercast.3 mph74%30.15 "Hg16 mi
9:00 PM55 °FPartly sunny.5 mph61%30.16 "Hg12 mi
8:00 PM58 °FPassing clouds.6 mph55%30.15 "Hg22 mi
7:00 PM61 °FPassing clouds.7 mph55%30.15 "Hg16 mi
6:00 PM63 °FPassing clouds.7 mph56%30.16 "Hg14 mi
5:00 PM64 °FPassing clouds.7 mph54%30.18 "Hg14 mi
4:00 PM65 °FPassing clouds.8 mph51%30.19 "Hg16 mi
3:00 PM64 °FScattered clouds.6 mph58%30.21 "Hg16 mi
2:00 PM65 °FScattered clouds.6 mph54%30.21 "Hg12 mi
1:00 PM63 °FPartly sunny.6 mph61%30.23 "Hg16 mi
12:00 PM60 °FPartly sunny.6 mph64%30.24 "Hg16 mi
Weather by CustomWeather, © 2015

See weather overviewHow to use our weather pages